PST,Max TemperatureF,Mean TemperatureF,Min TemperatureF,Max Dew PointF,MeanDew PointF,Min DewpointF,Max Humidity, Mean Humidity, Min Humidity, Max Sea Level PressureIn, Mean Sea Level PressureIn, Min Sea Level PressureIn, Max VisibilityMiles, Mean VisibilityMiles, Min VisibilityMiles, Max Wind SpeedMPH, Mean Wind SpeedMPH, Max Gust SpeedMPH,PrecipitationIn, CloudCover, Events, WindDirDegrees
2014-2-1,34,29,24,25,23,19,80,74,60,30.22,30.19,30.13,20,11,10,6,3,,0.00,6,,24
2014-2-2,37,34,30,25,21,10,80,60,28,30.13,30.06,30.01,20,14,10,14,5,25,0.00,6,,21
2014-2-3,36,32,26,9,6,1,40,32,15,30.29,30.18,30.09,15,15,15,24,17,36,0.00,0,,43
2014-2-4,28,26,23,3,0,-2,34,30,17,30.51,30.40,30.30,20,16,15,23,18,37,0.00,5,,47
2014-2-5,28,24,21,0,-4,-8,34,27,12,30.56,30.50,30.40,15,15,15,24,16,34,0.00,0,,45
2014-2-6,30,24,19,1,-5,-8,34,25,10,30.39,30.08,29.83,15,14,10,21,14,26,0.00,4,,58
2014-2-7,33,28,22,9,5,1,50,38,18,30.00,29.91,29.83,20,16,10,14,9,21,0.00,4,,67
2014-2-8,37,30,24,5,3,1,37,30,13,30.10,29.99,29.90,15,14,10,23,14,31,0.00,4,,66
2014-2-9,34,31,28,18,10,5,60,41,21,30.13,30.09,29.97,20,14,10,14,8,22,0.00,7,Snow,71
2014-2-10,44,36,29,43,32,18,100,85,45,30.10,29.99,29.93,15,9,2,21,7,24,0.24,8,Rain-Snow,87
2014-2-11,46,38,31,39,36,32,100,82,66,30.13,29.96,29.62,20,10,6,15,9,20,0.43,7,Rain,40
2014-2-12,51,44,37,45,38,36,100,83,54,29.86,29.67,29.38,20,12,4,18,9,26,0.31,7,Rain,254
2014-2-13,52,44,37,41,38,34,93,76,52,30.05,29.87,29.68,15,12,8,23,12,32,0.08,6,Rain,182
2014-2-14,53,44,36,43,37,32,93,75,55,29.95,29.75,29.55,20,14,6,23,12,29,0.12,6,Rain,160
2014-2-15,49,42,36,43,37,34,93,83,66,29.96,29.57,29.21,15,10,3,30,9,43,0.28,8,Rain,48
2014-2-16,45,41,37,37,33,30,87,70,43,29.90,29.75,29.53,20,14,10,25,20,38,0.08,7,Rain,185
2014-2-17,47,42,37,41,38,34,100,87,70,29.90,29.74,29.67,20,13,10,18,12,24,0.16,7,Rain,194
2014-2-18,48,42,37,43,36,30,93,80,63,29.91,29.70,29.48,20,12,8,29,12,39,0.20,6,Rain,168
2014-2-19,46,40,34,34,32,27,87,73,44,30.10,30.00,29.80,20,15,10,20,11,17,0.02,6,Rain,189
2014-2-20,49,42,34,37,34,32,93,72,49,30.14,30.04,29.93,20,14,6,22,14,30,0.08,6,Rain,202
2014-2-21,43,36,30,36,27,25,81,66,41,30.29,30.25,30.16,20,16,15,16,11,,0.00,5,Rain,212
2014-2-22,33,30,28,32,30,25,100,95,86,30.26,30.18,30.09,15,4,1,6,2,,0.24,8,Rain-Snow,34
2014-2-23,33,30,28,32,28,21,100,89,64,30.12,30.06,30.03,15,4,0,15,9,23,0.16,8,Rain-Snow,61
2014-2-24,35,32,28,29,24,18,93,73,45,30.18,30.15,30.12,15,7,1,18,14,25,0.16,8,Rain-Snow,64
2014-2-25,45,38,30,25,20,14,65,45,26,30.21,30.15,30.05,15,15,10,16,11,24,0.00,3,,59
2014-2-26,48,40,31,30,25,21,75,54,34,30.05,29.91,29.77,15,15,15,12,5,,0.00,5,,50
2014-2-27,45,40,34,41,34,30,100,81,59,29.79,29.73,29.68,20,13,6,9,4,,0.03,7,Fog-Rain,351
2014-2-28,51,44,38,37,22,9,93,46,14,29.78,29.69,29.61,15,12,10,33,13,41,0.00,3,,40